| time (UTC) | temp F | wind direction | speed knots | gust knots | rain 1hr in | rain 24hr in | rain mn in | humidity % | barometer mb |
| 20260831191501 | 85 | 316 | 0.0 | 0.0 | 0.00 | 0.00 | 0.00 | 54 | 1008.6 |
| 20260831190107 | 85 | 275 | 0.0 | 0.0 | 0.00 | 0.00 | 0.00 | 51 | 1008.5 |
| 20260831184600 | 85 | 304 | 0.0 | 0.0 | 0.00 | 0.00 | 0.00 | 54 | 1008.6 |
| 20260831183058 | 84 | 311 | 0.0 | 0.0 | 0.00 | 0.00 | 0.00 | 53 | 1008.6 |
| 20260831181556 | 84 | 331 | 0.0 | 0.0 | 0.00 | 0.00 | 0.00 | 60 | 1008.6 |
| 20260831180049 | 83 | 285 | 0.0 | 0.0 | 0.00 | 0.00 | 0.00 | 62 | 1008.7 |
| 20260831174548 | 83 | 269 | 0.0 | 0.0 | 0.00 | 0.00 | 0.00 | 65 | 1008.7 |
| 20260831173043 | 83 | 309 | 0.0 | 0.0 | 0.00 | 0.00 | 0.00 | 68 | 1008.8 |
| 20260831171544 | 81 | 348 | 0.0 | 0.0 | 0.00 | 0.00 | 0.00 | 72 | 1008.8 |
| 20260831170007 | 80 | 11 | 0.0 | 0.0 | 0.00 | 0.00 | 0.00 | 74 | 1008.9 |
| 20260831164503 | 80 | 306 | 0.0 | 0.0 | 0.00 | 0.00 | 0.00 | 78 | 1008.8 |
| 20260831163058 | 79 | 302 | 0.0 | 0.0 | 0.00 | 0.00 | 0.00 | 79 | 1008.8 |
| 20260831161558 | 79 | 323 | 0.0 | 0.0 | 0.00 | 0.00 | 0.00 | 81 | 1008.6 |
| 20260831160056 | 79 | 311 | 0.0 | 0.0 | 0.00 | 0.00 | 0.00 | 80 | 1008.7 |
| 20260831154555 | 78 | 302 | 0.0 | 0.0 | 0.00 | 0.00 | 0.00 | 82 | 1008.6 |
| 20260831153053 | 78 | 277 | 0.0 | 0.0 | 0.00 | 0.00 | 0.00 | 83 | 1008.6 |
| 20260831151553 | 78 | 298 | 0.0 | 0.0 | 0.00 | 0.00 | 0.00 | 83 | 1008.3 |
| 20260831150046 | 78 | 274 | 0.0 | 0.0 | 0.00 | 0.00 | 0.00 | 84 | 1008.0 |
| 20260831144600 | 77 | 297 | 0.0 | 0.0 | 0.00 | 0.00 | 0.00 | 84 | 1007.7 |
| 20260831143036 | 76 | 257 | 0.0 | 0.0 | 0.00 | 0.00 | 0.00 | 88 | 1007.6 |
| 20260831141532 | 75 | 302 | 0.0 | 0.0 | 0.00 | 0.00 | 0.00 | 90 | 1007.7 |
| 20260831140031 | 74 | 260 | 0.0 | 0.0 | 0.00 | 0.00 | 0.00 | 91 | 1007.6 |
| 20260831134526 | 73 | 263 | 0.0 | 0.0 | 0.00 | 0.00 | 0.00 | 93 | 1007.2 |
| 20260831133022 | 72 | 257 | 0.0 | 0.0 | 0.00 | 0.00 | 0.00 | 94 | 1007.0 |
| 20260831131522 | 72 | 259 | 0.0 | 0.0 | 0.00 | 0.00 | 0.00 | 95 | 1007.0 |
| 20260831130019 | 71 | 260 | 0.0 | 0.0 | 0.00 | 0.00 | 0.00 | 95 | 1006.8 |
| 20260831124517 | 71 | 225 | 0.0 | 0.0 | 0.00 | 0.00 | 0.00 | 95 | 1006.6 |
| 20260831123013 | 70 | 227 | 0.0 | 0.0 | 0.00 | 0.00 | 0.00 | 95 | 1006.3 |
| 20260831121512 | 70 | 226 | 0.0 | 0.0 | 0.00 | 0.00 | 0.00 | 95 | 1006.1 |
| 20260831120012 | 70 | 229 | 0.0 | 0.0 | 0.00 | 0.00 | 0.00 | 95 | 1006.0 |
| 20260831114511 | 70 | 229 | 0.0 | 0.0 | 0.00 | 0.00 | 0.00 | 95 | 1005.7 |
| 20260831113009 | 70 | 228 | 0.0 | 0.0 | 0.00 | 0.00 | 0.00 | 95 | 1005.8 |
| 20260831111507 | 70 | 221 | 0.0 | 0.0 | 0.00 | 0.00 | 0.00 | 94 | 1005.7 |
| 20260831110005 | 70 | 221 | 0.0 | 0.0 | 0.00 | 0.00 | 0.00 | 94 | 1005.2 |
| 20260831104512 | 70 | 220 | 0.0 | 0.0 | 0.00 | 0.00 | 0.00 | 94 | 1005.1 |
| 20260831103001 | 71 | 223 | 0.0 | 0.0 | 0.00 | 0.00 | 0.00 | 94 | 1005.1 |
| 20260831101602 | 71 | 213 | 0.0 | 0.0 | 0.00 | 0.00 | 0.00 | 94 | 1005.2 |
| 20260831100119 | 71 | 194 | 0.0 | 0.0 | 0.00 | 0.00 | 0.00 | 94 | 1005.3 |
| 20260831094559 | 71 | 204 | 0.0 | 0.0 | 0.00 | 0.00 | 0.00 | 94 | 1005.1 |
| 20260831093056 | 71 | 219 | 0.0 | 0.0 | 0.00 | 0.00 | 0.00 | 93 | 1005.0 |
| 20260831091600 | 71 | 202 | 0.0 | 0.0 | 0.00 | 0.00 | 0.00 | 93 | 1005.0 |
| 20260831090054 | 71 | 215 | 0.0 | 0.0 | 0.00 | 0.00 | 0.00 | 93 | 1005.0 |
| 20260831084631 | 71 | 171 | 0.0 | 0.0 | 0.00 | 0.00 | 0.00 | 93 | 1005.0 |
| 20260831083053 | 71 | 192 | 0.0 | 0.0 | 0.00 | 0.00 | 0.00 | 93 | 1004.9 |
| 20260831081549 | 72 | 214 | 0.0 | 0.0 | 0.00 | 0.00 | 0.00 | 92 | 1005.0 |
| 20260831080057 | 72 | 201 | 0.0 | 0.0 | 0.00 | 0.00 | 0.00 | 92 | 1004.8 |
| 20260831074558 | 72 | 178 | 0.0 | 0.0 | 0.00 | 0.00 | 0.00 | 92 | 1004.7 |
| 20260831073044 | 72 | 180 | 0.0 | 0.0 | 0.00 | 0.00 | 0.00 | 91 | 1004.8 |
| 20260831071549 | 72 | 186 | 0.0 | 0.0 | 0.00 | 0.00 | 0.00 | 91 | 1004.8 |
| 20260831070041 | 72 | 109 | 0.0 | 0.0 | 0.00 | 0.00 | 0.00 | 91 | 1004.9 |
| 20260831064540 | 72 | 148 | 0.0 | 0.0 | 0.00 | 0.00 | 0.00 | 91 | 1005.0 |
| 20260831063013 | 72 | 146 | 0.0 | 0.0 | 0.00 | 0.00 | 0.00 | 90 | 1005.0 |
| 20260831061506 | 73 | 132 | 0.0 | 0.0 | 0.00 | 0.00 | 0.00 | 90 | 1005.3 |
| 20260831060004 | 73 | 154 | 0.0 | 0.0 | 0.00 | 0.00 | 0.00 | 90 | 1005.4 |
| 20260831054501 | 73 | 131 | 0.0 | 0.0 | 0.00 | 0.00 | 0.00 | 90 | 1005.6 |
| 20260831053119 | 73 | 123 | 0.0 | 0.0 | 0.00 | 0.00 | 0.00 | 90 | 1005.6 |
| 20260831051557 | 73 | 134 | 0.0 | 0.0 | 0.00 | 0.00 | 0.00 | 89 | 1005.6 |
| 20260831050109 | 73 | 127 | 0.0 | 0.0 | 0.00 | 0.00 | 0.00 | 88 | 1006.1 |
| 20260831044524 | 73 | 147 | 0.0 | 0.0 | 0.00 | 0.00 | 0.00 | 88 | 1006.3 |
| 20260831043034 | 74 | 131 | 0.0 | 0.0 | 0.00 | 0.00 | 0.00 | 87 | 1006.4 |
| 20260831041521 | 74 | 163 | 0.0 | 0.0 | 0.00 | 0.00 | 0.00 | 87 | 1006.5 |
| 20260831040021 | 74 | 144 | 0.0 | 0.0 | 0.00 | 0.00 | 0.00 | 86 | 1006.3 |
| 20260831034521 | 74 | 144 | 0.0 | 0.0 | 0.00 | 0.00 | 0.00 | 85 | 1006.2 |
| 20260831033021 | 75 | 155 | 0.0 | 0.0 | 0.00 | 0.00 | 0.00 | 84 | 1006.3 |
| 20260831031517 | 75 | 173 | 0.0 | 0.0 | 0.00 | 0.00 | 0.00 | 83 | 1006.2 |
| 20260831030016 | 76 | 140 | 0.0 | 0.0 | 0.00 | 0.00 | 0.00 | 82 | 1006.2 |
| 20260831024523 | 76 | 188 | 0.0 | 0.0 | 0.00 | 0.00 | 0.00 | 81 | 1005.9 |
| 20260831023015 | 77 | 126 | 0.0 | 0.0 | 0.00 | 0.00 | 0.00 | 80 | 1005.8 |
| 20260831021513 | 77 | 161 | 0.0 | 0.0 | 0.00 | 0.00 | 0.00 | 78 | 1006.0 |
| 20260831020014 | 78 | 129 | 0.0 | 0.0 | 0.00 | 0.00 | 0.00 | 77 | 1005.9 |
| 20260831014511 | 79 | 133 | 0.0 | 0.0 | 0.00 | 0.00 | 0.00 | 75 | 1005.9 |
| 20260831013022 | 79 | 161 | 0.0 | 0.0 | 0.00 | 0.00 | 0.00 | 74 | 1005.9 |
| 20260831011516 | 80 | 159 | 0.0 | 0.0 | 0.00 | 0.00 | 0.00 | 74 | 1005.7 |
| 20260831010013 | 81 | 144 | 0.0 | 0.0 | 0.00 | 0.00 | 0.00 | 73 | 1005.7 |
| 20260831004510 | 81 | 151 | 0.0 | 0.0 | 0.00 | 0.00 | 0.00 | 71 | 1005.4 |
| 20260831003010 | 82 | 159 | 0.0 | 0.0 | 0.00 | 0.00 | 0.00 | 70 | 1005.5 |
| 20260831001512 | 83 | 140 | 0.0 | 0.0 | 0.00 | 0.00 | 0.00 | 69 | 1005.3 |
| 20260831000003 | 83 | 148 | 0.0 | 0.0 | 0.00 | 0.00 | 0.00 | 71 | 1005.2 |
| 20260830234501 | 83 | 127 | 0.0 | 0.0 | 0.00 | 0.00 | 0.00 | 70 | 1005.1 |
| 20260830233002 | 84 | 124 | 0.0 | 0.0 | 0.00 | 0.00 | 0.00 | 72 | 1004.8 |
| 20260830231605 | 84 | 103 | 0.0 | 0.0 | 0.00 | 0.00 | 0.00 | 72 | 1005.0 |
| 20260830230057 | 83 | 77 | 0.0 | 0.0 | 0.00 | 0.00 | 0.00 | 72 | 1004.9 |
| 20260830224607 | 83 | 105 | 0.0 | 0.0 | 0.00 | 0.00 | 0.00 | 71 | 1005.1 |
| 20260830223056 | 83 | 71 | 0.0 | 0.0 | 0.00 | 0.00 | 0.00 | 72 | 1005.0 |
| 20260830221524 | 83 | 97 | 0.0 | 0.0 | 0.00 | 0.00 | 0.00 | 72 | 1005.0 |
| 20260830220022 | 82 | 92 | 0.0 | 0.0 | 0.00 | 0.00 | 0.00 | 73 | 1005.1 |
| 20260830214551 | 82 | 123 | 0.0 | 0.0 | 0.00 | 0.00 | 0.00 | 73 | 1005.1 |
| 20260830213049 | 82 | 103 | 0.0 | 0.0 | 0.00 | 0.00 | 0.00 | 72 | 1005.4 |
| 20260830211546 | 82 | 76 | 0.0 | 0.0 | 0.00 | 0.00 | 0.00 | 73 | 1005.4 |
| 20260830210056 | 82 | 117 | 0.0 | 0.0 | 0.00 | 0.00 | 0.00 | 73 | 1005.7 |
| 20260830204547 | 82 | 130 | 0.0 | 0.0 | 0.00 | 0.00 | 0.00 | 72 | 1005.7 |
| 20260830203043 | 83 | 117 | 0.0 | 0.0 | 0.00 | 0.00 | 0.00 | 70 | 1006.0 |
| 20260830201539 | 82 | 119 | 0.0 | 0.0 | 0.00 | 0.00 | 0.00 | 72 | 1006.0 |
| 20260830200048 | 82 | 88 | 0.0 | 0.0 | 0.00 | 0.00 | 0.00 | 71 | 1006.0 |
| 20260830194543 | 82 | 49 | 0.0 | 0.0 | 0.00 | 0.00 | 0.00 | 72 | 1005.9 |
| 20260830193032 | 81 | 80 | 0.0 | 0.0 | 0.00 | 0.00 | 0.00 | 73 | 1006.2 |